Location: Unspecified
(38.7250°N, 0.0000°E)
Time: 00:23:07
(UTC+00:00)

USA 385 - Visible Passes

Search period start: 05 April 2026 00:00
Search period end: 15 April 2026 00:00
Orbit: 574 x 580 km, 70.0° (Epoch: 11 January)

Date Brightness Start Highest point End Pass type
(mag) Time Alt. Az. Time Alt. Az. Time Alt. Az.
5 Apr ? 02:11:47 14° NNE 02:11:47 14° NNE 02:12:26 10° NNE visible
5 Apr ? 03:48:03 10° NW 03:48:03 10° NW 03:48:08 10° NW visible
6 Apr ? 02:15:41 14° NNE 02:15:41 14° NNE 02:16:22 10° NNE visible
7 Apr ? 02:19:33 14° N 02:19:33 14° N 02:20:11 10° N visible
8 Apr ? 02:23:23 12° N 02:23:23 12° N 02:23:51 10° N visible
9 Apr ? 02:27:11 11° N 02:27:11 11° N 02:27:21 10° N visible
